GW0270 Weather Reports


time (UTC)temp
F
wind
direction
speed
knots
gust
knots
rain 1hr
in
rain 24hr
in
rain mn
in
humidity
%
barometer
mb
20260507063030 44 0 0.0 1.7 0.00 0.43 0.00 94 1006.2
20260507062513 44 0 0.0 1.7 0.00 0.43 0.00 94 1006.4
20260507062012 44 303 0.0 1.7 0.00 0.43 0.00 94 1006.6
20260507061537 44 0 0.0 3.5 0.00 0.43 0.00 94 1006.7
20260507061013 44 0 0.0 3.5 0.00 0.43 0.00 94 1007.0
20260507060512 44 304 0.0 1.7 0.00 0.43 0.00 94 1007.0
20260507060030 44 0 0.0 0.0 0.00 0.43 0.00 94 1006.9
20260507055512 44 0 0.0 4.3 0.00 0.43 0.00 94 1006.7
20260507055012 45 0 0.0 4.3 0.00 0.43 0.00 94 1007.0
20260507054530 45 303 0.9 2.6 0.00 0.43 0.00 94 1007.2
20260507054014 45 0 0.0 1.7 0.00 0.43 0.00 94 1007.2
20260507053511 45 0 0.0 1.7 0.00 0.43 0.00 94 1007.1
20260507053033 45 0 0.0 2.6 0.00 0.43 0.00 94 1007.3
20260507052513 45 271 0.0 2.6 0.00 0.43 0.00 94 1007.5
20260507052013 45 0 0.0 2.6 0.00 0.43 0.00 94 1007.3
20260507051530 45 0 0.0 6.1 0.00 0.43 0.00 94 1007.5
20260507051011 45 0 0.9 6.1 0.00 0.43 0.00 94 1007.4
20260507050515 46 0 0.0 0.9 0.00 0.43 0.00 94 1007.1
20260507050032 46 0 0.0 5.2 0.00 0.43 0.00 94 1007.0
20260507045514 46 0 0.9 5.2 0.00 0.43 0.00 94 1007.0
20260507045013 46 270 1.7 3.5 0.00 0.43 0.00 94 1007.1
20260507044533 46 270 1.7 2.6 0.00 0.43 0.00 94 1006.9
20260507044012 46 0 0.0 1.7 0.00 0.43 0.00 94 1006.9
20260507043514 46 270 0.0 0.9 0.00 0.43 0.00 94 1007.2
20260507043032 46 0 0.0 0.0 0.00 0.43 0.00 94 1007.0
20260507042514 46 0 0.0 3.5 0.00 0.43 0.00 93 1006.7
20260507042013 46 0 0.0 3.5 0.00 0.43 0.00 93 1006.7
20260507041536 46 0 0.0 3.5 0.00 0.43 0.00 93 1006.9
20260507041014 46 0 0.0 0.0 0.00 0.43 0.00 93 1007.1
20260507040510 46 0 0.0 0.0 0.00 0.43 0.00 93 1007.2
20260507040032 46 0 0.0 2.6 0.00 0.43 0.00 93 1007.2
20260507035513 46 0 0.0 2.6 0.00 0.43 0.43 93 1007.0
20260507035013 46 0 0.0 2.6 0.00 0.43 0.43 93 1007.0
20260507034535 46 0 0.0 2.6 0.00 0.43 0.43 93 1007.0
20260507034009 46 0 0.0 2.6 0.00 0.43 0.43 93 1007.2
20260507033514 46 0 0.0 2.6 0.01 0.43 0.43 93 1007.1
20260507033027 46 0 0.0 2.6 0.01 0.43 0.43 93 1007.0
20260507032516 46 0 0.0 2.6 0.01 0.43 0.43 93 1007.0
20260507032011 47 318 0.9 2.6 0.01 0.43 0.43 93 1007.1
20260507031531 47 0 0.0 3.5 0.02 0.43 0.43 93 1007.2
20260507031013 47 318 1.7 3.5 0.02 0.43 0.43 93 1007.3
20260507030512 47 318 0.0 4.3 0.02 0.43 0.43 93 1007.2
20260507030028 47 0 0.9 4.3 0.02 0.43 0.43 93 1007.2
20260507025510 47 0 0.9 3.5 0.02 0.43 0.43 93 1007.3
20260507025011 47 0 0.0 4.3 0.02 0.43 0.43 92 1007.2
20260507024531 47 0 0.0 4.3 0.02 0.43 0.43 92 1007.2
20260507024011 48 0 0.0 1.7 0.02 0.42 0.42 92 1007.3
20260507023513 48 0 0.0 1.7 0.02 0.42 0.42 92 1007.4
20260507023028 48 0 0.0 0.0 0.02 0.42 0.42 92 1007.3
20260507022516 48 0 0.0 0.9 0.02 0.42 0.42 92 1007.2
20260507022011 48 0 0.0 0.9 0.02 0.42 0.42 92 1007.3
20260507021528 48 0 0.0 1.7 0.01 0.41 0.41 92 1007.3
20260507021017 48 0 0.0 3.5 0.01 0.41 0.41 92 1007.3
20260507020511 48 0 0.0 3.5 0.01 0.41 0.41 92 1007.3
20260507020032 49 0 0.0 2.6 0.01 0.41 0.41 92 1007.3
20260507015512 49 0 0.0 2.6 0.01 0.41 0.41 92 1007.1
20260507015012 49 0 0.0 3.5 0.01 0.41 0.41 92 1007.2
20260507014531 49 296 0.9 7.0 0.01 0.41 0.41 91 1007.2
20260507014011 49 0 0.0 7.0 0.00 0.40 0.40 91 1007.0
20260507013510 50 305 2.6 11.3 0.00 0.40 0.40 91 1007.1
20260507013028 50 323 3.5 11.3 0.00 0.40 0.40 92 1007.1
20260507012512 50 296 3.5 8.7 0.00 0.40 0.40 92 1006.9
20260507012012 51 288 2.6 7.0 0.00 0.40 0.40 92 1006.8
20260507011533 51 301 0.9 5.2 0.00 0.40 0.40 92 1006.5
20260507011011 52 0 0.9 6.1 0.00 0.40 0.40 92 1006.2
20260507010530 52 278 1.7 6.1 0.00 0.40 0.40 93 1006.1
20260507010037 52 251 0.0 7.0 0.00 0.40 0.40 93 1006.0
20260507005516 52 0 1.7 7.0 0.00 0.40 0.40 93 1006.0
20260507005014 53 244 0.0 4.3 0.00 0.40 0.40 93 1005.9
20260507004530 53 0 0.0 3.5 0.00 0.40 0.40 93 1005.8
20260507004013 53 324 0.0 5.2 0.00 0.40 0.40 93 1005.6
20260507003512 53 0 0.9 5.2 0.00 0.40 0.40 93 1005.4
20260507003031 53 324 1.7 5.2 0.00 0.40 0.40 93 1005.5
20260507002514 54 300 2.6 5.2 0.00 0.40 0.40 93 1005.3
20260507002014 54 325 0.0 4.3 0.00 0.40 0.40 93 1005.2
20260507001537 54 0 0.0 4.3 0.01 0.40 0.40 93 1005.1
20260507001012 54 0 0.0 4.3 0.01 0.40 0.40 93 1005.0
20260507000514 55 304 0.0 3.5 0.01 0.40 0.40 94 1004.7
20260507000032 55 0 0.0 4.3 0.01 0.40 0.40 94 1004.6
20260506235511 55 0 0.0 7.0 0.02 0.40 0.40 94 1004.4
20260506235019 56 290 2.6 7.0 0.03 0.40 0.40 94 1004.4
20260506234544 56 278 2.6 7.8 0.03 0.40 0.40 94 1004.4
20260506234017 56 287 2.6 9.6 0.03 0.40 0.40 94 1004.3
20260506233514 57 295 4.3 9.6 0.03 0.40 0.40 95 1004.3
20260506233029 58 335 4.3 8.7 0.03 0.40 0.40 96 1004.2
20260506232514 58 0 0.0 2.6 0.03 0.40 0.40 96 1003.8
20260506232013 58 0 0.0 0.9 0.03 0.40 0.40 96 1003.7
20260506231535 58 0 0.0 1.7 0.02 0.39 0.39 96 1003.7
20260506231014 58 0 0.0 1.7 0.02 0.39 0.39 96 1003.6
20260506230511 58 0 0.0 1.7 0.02 0.39 0.39 96 1003.5
20260506230031 58 0 0.0 0.0 0.02 0.39 0.39 96 1003.3
20260506225513 58 0 0.0 0.0 0.01 0.38 0.38 96 1003.0
20260506225012 58 0 0.0 3.5 0.00 0.37 0.37 96 1003.0
20260506224530 58 0 0.0 3.5 0.00 0.37 0.37 96 1003.1
20260506224011 58 0 0.0 4.3 0.00 0.37 0.37 96 1003.1
20260506223511 58 0 0.0 6.1 0.00 0.37 0.37 96 1003.0
20260506223032 58 224 0.9 6.1 0.00 0.37 0.37 95 1003.1
20260506222513 58 0 0.0 4.3 0.00 0.37 0.37 95 1003.0
20260506222011 58 0 0.0 4.3 0.00 0.37 0.37 95 1003.1
20260506221531 59 150 0.9 5.2 0.00 0.37 0.37 95 1003.1
20260506221014 59 0 0.0 5.2 0.00 0.37 0.37 95 1003.1
20260506220514 59 0 0.0 7.0 0.00 0.37 0.37 95 1003.1
20260506220035 59 0 0.0 7.0 0.00 0.37 0.37 95 1003.0
20260506215514 59 229 0.0 7.0 0.01 0.37 0.37 95 1002.9
20260506215014 59 0 0.0 6.1 0.01 0.37 0.37 95 1002.9
20260506214531 59 0 0.0 6.1 0.01 0.37 0.37 95 1002.9
20260506214012 59 341 0.0 4.3 0.01 0.37 0.37 95 1002.9
20260506213514 59 0 0.0 4.3 0.01 0.37 0.37 95 1003.0
20260506213030 59 0 0.0 4.3 0.01 0.37 0.37 95 1003.1
20260506212516 59 0 0.0 5.2 0.01 0.37 0.37 95 1003.1
20260506212015 59 213 0.0 5.2 0.01 0.37 0.37 95 1003.1
20260506211531 59 0 0.0 3.5 0.01 0.37 0.37 95 1003.1
20260506211014 59 0 0.0 3.5 0.01 0.37 0.37 95 1003.2
20260506210515 59 0 0.0 6.1 0.01 0.37 0.37 95 1003.2
20260506210030 59 0 0.0 6.1 0.01 0.37 0.37 95 1003.1
20260506205514 59 0 0.0 7.8 0.01 0.36 0.36 95 1003.2
20260506205014 59 0 0.9 7.8 0.01 0.36 0.36 95 1003.2
20260506204533 59 0 0.0 0.9 0.01 0.36 0.36 95 1003.3
20260506204015 59 0 0.0 7.8 0.01 0.36 0.36 95 1003.3
20260506203515 59 0 0.9 9.6 0.01 0.36 0.36 95 1003.3
20260506203031 59 0 0.9 9.6 0.01 0.36 0.36 95 1003.4
20260506202516 59 0 0.0 3.5 0.01 0.36 0.36 95 1003.3
20260506202013 59 0 0.0 4.3 0.01 0.36 0.36 95 1003.3
20260506201531 60 0 0.0 4.3 0.01 0.36 0.36 94 1003.3
20260506201011 60 0 0.0 4.3 0.01 0.36 0.36 94 1003.4
20260506200514 60 138 0.0 4.3 0.01 0.36 0.36 94 1003.5
20260506200030 60 0 0.0 5.2 0.02 0.36 0.36 94 1003.5
20260506195513 60 0 0.0 6.1 0.01 0.35 0.35 94 1003.6
20260506195015 60 0 0.0 6.1 0.02 0.35 0.35 94 1003.7
20260506194535 60 235 0.0 2.6 0.02 0.35 0.35 94 1003.7
20260506194018 60 0 0.0 0.9 0.03 0.35 0.35 94 1003.7
20260506193515 60 0 0.0 1.7 0.05 0.35 0.35 94 1003.7
20260506193031 60 0 0.0 4.3 0.07 0.35 0.35 94 1003.8
20260506192514 60 0 0.0 5.2 0.11 0.35 0.35 94 1003.8
20260506192011 60 205 0.0 5.2 0.12 0.35 0.35 94 1003.8
20260506191531 59 0 0.0 1.7 0.15 0.35 0.35 94 1004.0
20260506191015 59 0 0.0 2.6 0.17 0.35 0.35 94 1003.9
20260506190512 59 0 0.0 2.6 0.17 0.34 0.34 94 1003.9
20260506190031 59 0 0.0 0.0 0.17 0.34 0.34 94 1003.9
20260506185514 59 0 0.0 0.0 0.18 0.34 0.34 94 1004.0
20260506185012 59 0 0.0 0.0 0.18 0.33 0.33 93 1004.1
20260506184530 59 0 0.0 0.0 0.18 0.33 0.33 93 1004.1
20260506184009 59 0 0.0 1.7 0.18 0.32 0.32 93 1004.1
20260506183511 59 0 0.0 3.5 0.17 0.30 0.30 93 1004.3
20260506183029 59 0 0.0 3.5 0.14 0.27 0.27 93 1004.4
20260506182512 60 0 0.0 2.6 0.12 0.24 0.24 93 1004.4
20260506182016 60 0 0.0 2.6 0.11 0.22 0.22 93 1004.5
20260506181530 60 0 0.0 0.0 0.09 0.19 0.19 93 1004.7
20260506181011 60 0 0.0 0.0 0.09 0.18 0.18 93 1004.7
20260506180513 60 0 0.0 0.0 0.09 0.17 0.17 93 1004.7
20260506180028 60 0 0.0 0.0 0.10 0.17 0.17 93 1004.7
20260506175512 60 0 0.0 0.9 0.10 0.16 0.16 93 1004.8
20260506175014 60 0 0.0 0.9 0.10 0.15 0.15 92 1005.0
20260506174529 60 0 0.0 1.7 0.10 0.15 0.15 92 1005.1
20260506174013 60 0 0.0 1.7 0.10 0.14 0.14 92 1005.3
20260506173510 60 0 0.0 2.6 0.10 0.13 0.13 92 1005.4
20260506173035 60 0 0.0 2.6 0.10 0.13 0.13 91 1005.4
20260506172512 60 201 0.0 2.6 0.10 0.12 0.12 91 1005.5
20260506172013 60 0 0.0 5.2 0.09 0.11 0.11 91 1005.6
20260506171530 60 0 0.0 5.2 0.08 0.10 0.10 91 1005.8
20260506171013 60 0 0.0 3.5 0.08 0.09 0.09 91 1005.7
20260506170514 60 0 0.0 3.5 0.06 0.07 0.07 90 1005.7
20260506170027 60 215 0.0 3.5 0.06 0.07 0.07 91 1005.7
20260506165511 60 0 0.0 5.2 0.05 0.06 0.06 90 1005.6
20260506165013 61 0 0.0 5.2 0.04 0.05 0.05 90 1005.6
20260506164530 61 0 0.0 8.7 0.04 0.05 0.05 90 1005.6
20260506164012 61 0 0.9 8.7 0.03 0.04 0.04 90 1005.6
20260506163511 61 256 0.9 5.2 0.03 0.03 0.03 89 1005.6
20260506163028 61 0 0.0 3.5 0.03 0.03 0.03 89 1005.6
20260506162511 61 0 0.0 3.5 0.02 0.02 0.02 89 1005.8
20260506162016 61 0 0.0 1.7 0.02 0.02 0.02 88 1005.9
20260506161528 61 0 0.0 1.7 0.02 0.02 0.02 88 1005.9
20260506161009 61 0 0.0 5.2 0.01 0.01 0.01 88 1005.9
20260506160516 61 0 0.0 5.2 0.01 0.01 0.01 88 1006.0
20260506160037 61 0 0.0 2.6 0.01 0.01 0.01 88 1005.9
20260506155512 61 0 0.0 7.0 0.01 0.01 0.01 88 1006.0
20260506155010 61 0 0.0 7.0 0.01 0.01 0.01 88 1006.0
20260506154532 61 211 0.9 7.0 0.01 0.01 0.01 87 1006.2
20260506154013 61 0 0.0 2.6 0.00 0.00 0.00 87 1006.4
20260506153513 61 0 0.0 0.9 0.00 0.00 0.00 87 1006.5
20260506153029 61 0 0.0 4.3 0.00 0.00 0.00 87 1006.6
20260506152514 61 0 0.0 5.2 0.00 0.00 0.00 86 1006.7
20260506152012 61 259 0.0 5.2 0.00 0.00 0.00 86 1006.7
20260506151531 61 0 0.0 3.5 0.00 0.00 0.00 86 1006.7
20260506151013 61 0 0.0 3.5 0.00 0.00 0.00 85 1006.9
20260506150510 61 0 0.0 3.5 0.00 0.00 0.00 85 1007.0
20260506150028 61 0 0.0 3.5 0.00 0.00 0.00 84 1007.1
20260506145510 61 0 0.0 1.7 0.00 0.00 0.00 84 1007.1
20260506145009 61 0 0.0 4.3 0.00 0.00 0.00 84 1007.1
20260506144530 61 0 0.0 4.3 0.00 0.00 0.00 84 1007.1
20260506144017 61 0 0.0 0.9 0.00 0.00 0.00 84 1007.1
20260506143516 60 0 0.0 0.9 0.00 0.00 0.00 84 1007.1
20260506143034 60 0 0.0 0.9 0.00 0.00 0.00 84 1006.9
20260506142513 60 0 0.0 0.9 0.00 0.00 0.00 84 1006.9
20260506142014 60 0 0.0 0.9 0.00 0.00 0.00 84 1006.8
20260506141528 60 0 0.0 0.9 0.00 0.00 0.00 84 1006.8
20260506141012 60 0 0.0 7.0 0.00 0.00 0.00 84 1006.8
20260506140515 60 0 0.0 7.0 0.00 0.00 0.00 85 1006.9
20260506140030 60 0 0.9 7.0 0.00 0.00 0.00 86 1006.8
20260506135513 60 135 0.0 7.0 0.00 0.00 0.00 86 1006.8
20260506135016 59 0 0.9 7.0 0.00 0.00 0.00 86 1006.8
20260506134529 59 0 0.0 4.3 0.00 0.00 0.00 86 1006.9
20260506134014 59 0 0.0 4.3 0.00 0.00 0.00 86 1006.7
20260506133512 59 0 0.0 7.0 0.00 0.00 0.00 87 1006.9
20260506133030 59 344 0.0 7.0 0.00 0.00 0.00 87 1007.0
20260506132514 59 211 0.9 7.0 0.00 0.00 0.00 87 1007.0
20260506132009 58 0 0.0 3.5 0.00 0.00 0.00 87 1006.9
20260506131544 58 0 0.0 3.5 0.00 0.00 0.00 88 1007.1
20260506131010 58 0 0.0 3.5 0.00 0.00 0.00 88 1007.1
20260506130516 58 0 0.0 2.6 0.00 0.00 0.00 88 1007.2
20260506130038 58 0 0.0 2.6 0.00 0.00 0.00 88 1007.3
20260506125511 58 0 0.0 2.6 0.00 0.01 0.00 88 1007.4
20260506125011 57 0 0.0 6.1 0.00 0.01 0.00 88 1007.5
20260506124527 57 0 0.0 7.0 0.00 0.01 0.00 88 1007.5
20260506124012 57 217 0.0 7.0 0.00 0.01 0.00 88 1007.6
20260506123511 57 165 0.9 7.0 0.00 0.01 0.00 88 1007.6
20260506123030 57 0 0.0 2.6 0.00 0.01 0.00 88 1007.5
20260506122512 57 0 0.0 2.6 0.00 0.01 0.00 88 1007.5
20260506122012 57 0 0.0 5.2 0.00 0.01 0.00 88 1007.5
20260506121529 57 0 0.0 5.2 0.00 0.01 0.00 88 1007.3
20260506121018 57 128 0.0 2.6 0.00 0.01 0.00 88 1007.2
20260506120514 57 0 0.0 2.6 0.00 0.01 0.00 88 1007.1
20260506120028 57 0 0.0 0.0 0.00 0.01 0.00 88 1007.3
20260506115510 57 0 0.0 0.0 0.00 0.01 0.00 89 1007.3
20260506115013 56 0 0.0 0.0 0.00 0.01 0.00 89 1007.3
20260506114528 56 0 0.0 0.9 0.00 0.01 0.00 89 1007.3
20260506114012 56 0 0.0 2.6 0.00 0.01 0.00 89 1007.5
20260506113515 56 0 0.0 3.5 0.00 0.01 0.00 89 1007.5
20260506113030 56 0 0.0 3.5 0.00 0.01 0.00 89 1007.7
20260506112510 56 0 0.0 3.5 0.00 0.01 0.00 89 1007.5
20260506112010 56 97 0.0 2.6 0.00 0.01 0.00 89 1007.4
20260506111529 56 0 0.0 2.6 0.00 0.01 0.00 89 1007.4
20260506111011 56 0 0.0 2.6 0.00 0.01 0.00 89 1007.5
20260506110511 55 0 0.0 2.6 0.00 0.01 0.00 89 1007.4
20260506110028 55 0 0.0 2.6 0.00 0.01 0.00 89 1007.5
20260506105511 55 0 0.0 5.2 0.00 0.01 0.00 89 1007.5
20260506105011 55 0 0.0 5.2 0.00 0.01 0.00 89 1007.5
20260506104530 55 0 0.0 2.6 0.00 0.01 0.00 88 1007.4
20260506104011 55 0 0.0 2.6 0.00 0.01 0.00 88 1007.4
20260506103512 55 0 0.0 0.9 0.00 0.01 0.00 88 1007.3
20260506103037 55 0 0.0 3.5 0.00 0.01 0.00 88 1007.3
20260506102512 55 0 0.0 3.5 0.00 0.01 0.00 87 1007.5
20260506102012 55 0 0.0 3.5 0.00 0.01 0.00 87 1007.4
20260506101530 55 0 0.0 0.0 0.00 0.01 0.00 87 1007.4
20260506101011 55 0 0.0 0.0 0.00 0.01 0.00 86 1007.3
20260506100512 55 0 0.0 0.0 0.00 0.01 0.00 86 1007.5
20260506100035 55 0 0.0 0.0 0.00 0.01 0.00 85 1007.4
20260506095511 55 0 0.0 0.0 0.00 0.01 0.00 85 1007.2
20260506095012 55 0 0.0 0.0 0.00 0.01 0.00 85 1007.4
20260506094535 55 0 0.0 0.0 0.00 0.01 0.00 84 1007.4
20260506094017 56 0 0.0 0.0 0.00 0.01 0.00 84 1007.2
20260506093511 56 0 0.0 0.0 0.00 0.01 0.00 84 1007.3
20260506093037 56 0 0.0 0.0 0.00 0.01 0.00 84 1007.4
20260506092514 56 0 0.0 0.0 0.00 0.01 0.00 84 1007.5
20260506092017 56 0 0.0 0.0 0.00 0.01 0.00 84 1007.4
20260506091531 56 0 0.0 0.0 0.00 0.01 0.00 84 1007.2
20260506091011 56 0 0.0 0.0 0.00 0.01 0.00 84 1007.4
20260506090509 56 0 0.0 0.0 0.00 0.01 0.00 83 1007.3
20260506090029 56 0 0.0 0.0 0.00 0.01 0.00 83 1007.4
20260506085518 56 0 0.0 0.0 0.00 0.01 0.00 83 1007.3
20260506085011 56 0 0.0 0.0 0.00 0.01 0.00 83 1007.1
20260506084531 56 0 0.0 0.0 0.00 0.01 0.00 83 1007.5
20260506084012 56 0 0.0 0.0 0.00 0.01 0.00 82 1007.5
20260506083512 56 0 0.0 0.0 0.00 0.01 0.00 82 1007.5
20260506083030 57 0 0.0 0.0 0.00 0.01 0.00 82 1007.5
20260506082513 57 0 0.0 0.0 0.00 0.01 0.00 82 1007.6
20260506082013 57 0 0.0 0.0 0.00 0.01 0.00 81 1007.5
20260506081533 57 0 0.0 0.0 0.00 0.01 0.00 81 1007.5
20260506081012 57 0 0.0 0.0 0.00 0.01 0.00 81 1007.4
20260506080512 57 0 0.0 0.0 0.00 0.01 0.00 81 1007.7
20260506073511 58 0 0.0 0.0 0.00 0.01 0.00 80 1007.6
20260506073028 58 0 0.0 0.0 0.00 0.01 0.00 80 1007.8
20260506072511 58 0 0.0 0.0 0.00 0.01 0.00 79 1007.7
20260506072014 58 0 0.0 0.0 0.00 0.01 0.00 79 1007.7
20260506071532 58 0 0.0 0.0 0.00 0.01 0.00 79 1007.7
20260506071012 58 0 0.0 0.0 0.00 0.01 0.00 79 1007.6
20260506070514 59 0 0.0 0.0 0.00 0.01 0.00 79 1007.6